Location: Unspecified
(0.0000°N, 0.0000°E)
Time: 03:53:56
(UTC+00:00)

ISS - Pass Details

Date: 18 September 2017
Orbit: 401 x 407 km, 51.6° (Epoch: 23 September)

Event Time Altitude Azimuth Distance (km) Brightness Sun altitude
Rises 18:46:44 0° 191° (SSW) 2,309 0.1 -13.2°
Reaches altitude 10° 18:49:16 10° 171° (S) 1,449 -1.1 -13.8°
Enters shadow 18:50:56 17° 141° (SE) 1,098 -2.0 -14.2°
